Regional Weather Roundup
Issued by NWS Midland/Odessa, TX

Home | Current Version | Previous Version | Text Only | Print | Product List | Glossary On
Versions: 1 2 3 4 5 6 7 8 9 10 11 12 13 14 15 16 17 18 19 20 21 22 23 24 25 26 27 28 29 30 31 32 33 34 35 36 37 38 39 40 41 42 43 44 45 46 47 48 49 50
296
ASUS44 KMAF 131601
RWRMAF
MIDLAND AREA WEATHER ROUNDUP
NATIONAL WEATHER SERVICE MIDLAND TX
1000 AM CST SAT FEB 13 2016

...IN SOUTHWEST TEXAS AND SOUTHEAST NEW MEXICO...

CITY           SKY/WX    TMP DP  RH WIND       PRES   REMARKS
ALPINE         SUNNY     62  21  20 W5        30.38R
ANDREWS        FAIR      50  34  54 SE14      30.31F
ARTESIA        SUNNY     45  30  57 SE3       30.30S
BIG SPRING     SUNNY     52  34  50 SE12      30.34S
CARLSBAD       SUNNY     47  28  47 N3        30.28F
DRYDEN           N/A     59  44  57 VRB7      30.30R
FORT STOCKTON  SUNNY     53  28  38 SW6       30.30R
GUAD PASS      CLOUDY    55  18  23 SW8       30.33S
HOBBS          SUNNY     48  34  57 E8        30.31F
MARFA          SUNNY     59  20  22 S5        30.36R HAZE
MIDLAND AIRPK  SUNNY     52  35  52 SE8       30.32S
MIDLAND INTL   SUNNY     53  36  52 SE14      30.31S
ODESSA         SUNNY     52  36  54 SE13      30.31S
PECOS          SUNNY     44  32  63 N3        30.30S
PRESIDIO       FAIR      56  22  26 E5        30.30R
SEMINOLE       SUNNY     49  34  57 SE9       30.32F
SNYDER           N/A     46  34  64 E5        30.34S
WINK           SUNNY     52  37  56 SE9       30.28F
$$
...OTHER STATIONS IN TEXAS...

CITY           SKY/WX    TMP DP  RH WIND       PRES   REMARKS
ABILENE        SUNNY     52  35  52 S6        30.35S
AMARILLO       SUNNY     38  30  73 S23       30.28F WCI  27
AUSTIN         MOSUNNY   57  45  64 VRB3      30.36R
BROWNSVILLE    SUNNY     72  56  57 SE9       30.32R
CORPUS CHRISTI PTSUNNY   71  57  61 S10       30.34R
DALLAS FTW     MOSUNNY   52  34  50 SE12      30.40S
DEL RIO        SUNNY     62  47  57 SE10      30.30S
EL PASO        PTSUNNY   49  16  26 N6        30.27S
HOUSTON INT    MOSUNNY   61  44  53 E15       30.38S
LUBBOCK        MOSUNNY   43  33  68 SE12G18   30.31F WCI  37
SAN ANGELO     SUNNY     53  35  50 E5        30.33F
SAN ANTONIO    PTSUNNY   60  47  61 E3        30.35S
WACO           SUNNY     53  37  54 E6        30.38S
WICHITA FALLS  NOT AVBL
$$
...OTHER LOCATIONS IN NEW MEXICO...

CITY           SKY/WX    TMP DP  RH WIND       PRES   REMARKS
ALAMAGORDO     MOSUNNY   50  14  23 CALM      30.28S
ALBUQUERQUE    MOSUNNY   42  22  44 CALM      30.32S
CANNON AFB     SUNNY     44  32  61 S15       30.28F WCI  37
CLOVIS         SUNNY     45  32  61 S20       30.29F WCI  37
HOLLOMAN AFB   CLOUDY    46  13  26 CALM      30.27S
ROSWELL        CLOUDY    45  27  49 CALM      30.28F
RUIDOSO          N/A     50  12  22 CALM      30.36S
SANTA FE       SUNNY     43  25  49 NE8       30.31S WCI  38
TRUTH OR CONSE MOSUNNY   48  13  24 N3        30.29S
TUCUMCARI      SUNNY     51  30  44 SW10      30.23F
$$




USA.gov is the U.S. government's official web portal to all federal, state and local government web resources and services.